User: anonymous   Login
Location: Home
(42.5358°N, 72.7383°W)
Time: 10:55:41
(UTC-04:00)
Language:

CZ-4 DEB - Orbit

View from above orbital plane
View from above orbital plane
View from above satellite
View from above satellite

Ground track
Ground track

The orbit data is extracted from the following two-line orbital elements,

1 27688U 99057MU  25200.39136639  .00001339  00000-0  33194-3 0  9999
2 27688  98.5420 255.7203 0082646 181.6480 193.9454 14.51591397217571
Epoch (UTC): 19 July 2025 09:23:34
Eccentricity: 0.0082646
inclination: 98.5420°
perigee height: 662 km
apogee height: 779 km
right ascension of ascending node: 255.7203°
argument of perigee: 181.6480°
revolutions per day: 14.51591397
mean anomaly at epoch: 193.9454°
orbit number at epoch: 21757

The dashed part of the orbit path shows where the satellite is in the earth's shadow,  

DLR